Location: Barrett Brook
(44.3123°N, 71.7154°W)
Time: 08:45:12
(UTC+00:00)

Envisat - Visible Passes

Search period start: 11 October 2024 00:00
Search period end: 21 October 2024 00:00
Orbit: 762 x 764 km, 98.3° (Epoch: 10 October)

Date Brightness Start Highest point End Pass type
(mag) Time Alt. Az. Time Alt. Az. Time Alt. Az.
11 Oct 4.4 07:45:58 10° NNE 07:48:51 34° NNE 07:48:51 34° NNE visible
11 Oct 4.5 09:26:05 10° NNW 09:29:00 18° NW 09:29:00 18° NW visible
12 Oct 5.4 07:08:57 10° NE 07:10:48 19° NE 07:10:48 19° NE visible
12 Oct 4.0 08:47:43 10° N 08:50:56 30° NW 08:50:56 30° NW visible
13 Oct 4.1 08:09:56 10° N 08:12:52 36° N 08:12:52 36° N visible
13 Oct 4.9 09:51:29 10° NW 09:53:00 11° NW 09:53:00 11° NW visible
14 Oct 4.9 07:32:33 10° NNE 07:34:48 25° NE 07:34:48 25° NE visible
14 Oct 4.4 09:12:10 10° NNW 09:14:56 21° NW 09:14:56 21° NW visible
15 Oct 5.8 06:55:47 10° NE 06:56:43 14° NE 06:56:43 14° NE visible
15 Oct 4.2 08:34:03 10° N 08:36:52 31° NNW 08:36:52 31° NNW visible
16 Oct 4.6 07:56:23 10° NNE 07:58:47 28° NNE 07:58:47 28° NNE visible
16 Oct 4.8 09:37:00 10° NNW 09:38:55 14° NW 09:38:55 14° NW visible
17 Oct 5.4 07:19:12 10° NNE 07:20:42 18° NE 07:20:42 18° NE visible
17 Oct 4.4 08:58:21 10° N 09:00:50 23° NNW 09:00:50 23° NNW visible
18 Oct 4.5 08:20:24 10° N 08:22:45 27° N 08:22:45 27° N visible
19 Oct 5.1 07:42:53 10° NNE 07:44:40 22° NNE 07:44:40 22° NNE visible
19 Oct 4.7 09:22:54 10° NNW 09:24:49 17° NW 09:24:49 17° NW visible
20 Oct 5.8 07:05:53 10° NE 07:06:35 13° NE 07:06:35 13° NE visible
20 Oct 4.5 08:44:34 10° N 08:46:43 23° NNW 08:46:43 23° NNW visible
